| time (UTC) | temp F | wind direction | speed MPH | gust MPH | rain 1hr in | rain 24hr in | rain mn in | humidity % | barometer mb |
| 20260505171058 | 72 | 138 | 8.0 | 15.0 | 0.00 | 0.00 | 0.00 | 62 | 1009.6 |
| 20260505170555 | 73 | 217 | 5.0 | 16.0 | 0.00 | 0.00 | 0.00 | 62 | 1009.5 |
| 20260505170055 | 72 | 190 | 5.0 | 16.0 | 0.00 | 0.00 | 0.00 | 64 | 1009.6 |
| 20260505165557 | 72 | 198 | 5.0 | 14.0 | 0.00 | 0.00 | 0.00 | 63 | 1009.6 |
| 20260505165057 | 72 | 174 | 4.0 | 14.0 | 0.00 | 0.00 | 0.00 | 63 | 1009.5 |
| 20260505164622 | 72 | 119 | 6.0 | 12.0 | 0.00 | 0.00 | 0.00 | 65 | 1009.5 |
| 20260505164059 | 72 | 142 | 3.0 | 9.0 | 0.00 | 0.00 | 0.00 | 62 | 1009.6 |
| 20260505163555 | 72 | 189 | 4.0 | 9.0 | 0.00 | 0.00 | 0.00 | 62 | 1009.8 |
| 20260505163102 | 72 | 173 | 4.0 | 14.0 | 0.00 | 0.00 | 0.00 | 64 | 1010.0 |
| 20260505162555 | 71 | 143 | 3.0 | 14.0 | 0.00 | 0.00 | 0.00 | 65 | 1010.0 |
| 20260505162054 | 71 | 209 | 3.0 | 9.0 | 0.00 | 0.00 | 0.00 | 64 | 1010.1 |
| 20260505161613 | 71 | 215 | 5.0 | 15.0 | 0.00 | 0.00 | 0.00 | 64 | 1010.2 |
| 20260505161054 | 71 | 221 | 4.0 | 15.0 | 0.00 | 0.00 | 0.00 | 66 | 1010.2 |
| 20260505160554 | 71 | 158 | 4.0 | 13.0 | 0.00 | 0.00 | 0.00 | 66 | 1010.3 |
| 20260505153055 | 70 | 218 | 6.0 | 12.0 | 0.00 | 0.00 | 0.00 | 67 | 1010.7 |
| 20260505152557 | 70 | 190 | 6.0 | 16.0 | 0.00 | 0.00 | 0.00 | 68 | 1010.9 |
| 20260505152058 | 69 | 161 | 8.0 | 16.0 | 0.00 | 0.00 | 0.00 | 68 | 1011.0 |
| 20260505151556 | 69 | 220 | 7.0 | 15.0 | 0.00 | 0.00 | 0.00 | 67 | 1011.1 |
| 20260505151100 | 69 | 174 | 7.0 | 15.0 | 0.00 | 0.00 | 0.00 | 68 | 1011.1 |
| 20260505150557 | 69 | 211 | 5.0 | 15.0 | 0.00 | 0.00 | 0.00 | 67 | 1011.0 |
| 20260505140554 | 66 | 213 | 7.0 | 13.0 | 0.00 | 0.00 | 0.00 | 70 | 1010.6 |
| 20260505130110 | 60 | 146 | 2.0 | 7.0 | 0.00 | 0.00 | 0.00 | 82 | 1010.4 |
| 20260505124602 | 59 | 183 | 3.0 | 9.0 | 0.00 | 0.00 | 0.00 | 84 | 1010.6 |
| 20260505124057 | 58 | 228 | 2.0 | 4.0 | 0.00 | 0.00 | 0.00 | 85 | 1010.7 |
| 20260505123556 | 58 | 0 | 1.0 | 6.0 | 0.00 | 0.00 | 0.00 | 85 | 1010.7 |
| 20260505123105 | 58 | 188 | 2.0 | 9.0 | 0.00 | 0.00 | 0.00 | 84 | 1010.6 |
| 20260505122556 | 58 | 190 | 3.0 | 9.0 | 0.00 | 0.00 | 0.00 | 84 | 1010.7 |
| 20260505122056 | 58 | 199 | 2.0 | 5.0 | 0.00 | 0.00 | 0.00 | 86 | 1010.7 |
| 20260505121557 | 58 | 227 | 2.0 | 4.0 | 0.00 | 0.00 | 0.00 | 86 | 1010.6 |
| 20260505121058 | 57 | 0 | 0.0 | 4.0 | 0.00 | 0.00 | 0.00 | 87 | 1010.7 |
| 20260505120555 | 57 | 0 | 0.0 | 5.0 | 0.00 | 0.00 | 0.00 | 87 | 1010.8 |
| 20260505120114 | 57 | 296 | 0.0 | 7.0 | 0.00 | 0.00 | 0.00 | 88 | 1010.8 |
| 20260505115555 | 57 | 296 | 2.0 | 7.0 | 0.00 | 0.00 | 0.00 | 89 | 1010.9 |
| 20260505115100 | 57 | 225 | 1.0 | 6.0 | 0.00 | 0.00 | 0.00 | 89 | 1010.9 |
| 20260505114556 | 57 | 0 | 2.0 | 7.0 | 0.00 | 0.00 | 0.00 | 90 | 1011.0 |
| 20260505114056 | 56 | 227 | 3.0 | 7.0 | 0.00 | 0.00 | 0.00 | 90 | 1010.8 |
| 20260505113554 | 55 | 0 | 2.0 | 6.0 | 0.00 | 0.00 | 0.00 | 91 | 1010.8 |
| 20260505113105 | 55 | 186 | 1.0 | 6.0 | 0.00 | 0.00 | 0.00 | 92 | 1010.9 |
| 20260505112557 | 54 | 214 | 1.0 | 5.0 | 0.00 | 0.00 | 0.00 | 93 | 1010.9 |
| 20260505112057 | 53 | 0 | 2.0 | 6.0 | 0.00 | 0.00 | 0.00 | 93 | 1010.9 |
| 20260505111605 | 53 | 193 | 2.0 | 8.0 | 0.00 | 0.00 | 0.00 | 93 | 1010.9 |
| 20260505111057 | 53 | 0 | 3.0 | 8.0 | 0.00 | 0.00 | 0.00 | 93 | 1010.7 |
| 20260505110557 | 53 | 248 | 3.0 | 8.0 | 0.00 | 0.00 | 0.00 | 93 | 1010.7 |
| 20260505110118 | 53 | 191 | 3.0 | 8.0 | 0.00 | 0.00 | 0.00 | 93 | 1010.7 |
| 20260505102057 | 52 | 0.0 | 0.0 | 0.00 | 0.00 | 0.00 | 93 | 1010.1 | |
| 20260505101603 | 52 | 0.0 | 0.0 | 0.00 | 0.00 | 0.00 | 93 | 1009.9 | |
| 20260505101056 | 52 | 0.0 | 0.0 | 0.00 | 0.00 | 0.00 | 93 | 1009.9 | |
| 20260505100601 | 52 | 0.0 | 0.0 | 0.00 | 0.00 | 0.00 | 93 | 1009.8 | |
| 20260505100059 | 52 | 0.0 | 0.0 | 0.00 | 0.00 | 0.00 | 93 | 1009.7 | |
| 20260505095557 | 52 | 0.0 | 0.0 | 0.00 | 0.00 | 0.00 | 93 | 1009.9 | |
| 20260505095055 | 52 | 0.0 | 0.0 | 0.00 | 0.00 | 0.00 | 93 | 1009.9 | |
| 20260505094559 | 52 | 0.0 | 0.0 | 0.00 | 0.00 | 0.00 | 93 | 1009.8 | |
| 20260505094058 | 52 | 0.0 | 0.0 | 0.00 | 0.00 | 0.00 | 93 | 1009.7 | |
| 20260505093556 | 52 | 0.0 | 0.0 | 0.00 | 0.00 | 0.00 | 93 | 1009.7 | |
| 20260505093109 | 52 | 0.0 | 0.0 | 0.00 | 0.00 | 0.00 | 93 | 1009.8 | |
| 20260505092556 | 52 | 0.0 | 0.0 | 0.00 | 0.00 | 0.00 | 93 | 1009.9 | |
| 20260505092058 | 52 | 0.0 | 0.0 | 0.00 | 0.00 | 0.00 | 93 | 1009.6 | |
| 20260505091556 | 52 | 0.0 | 0.0 | 0.00 | 0.00 | 0.00 | 93 | 1009.7 | |
| 20260505091055 | 52 | 0.0 | 0.0 | 0.00 | 0.00 | 0.00 | 93 | 1009.7 | |
| 20260505090556 | 52 | 0.0 | 0.0 | 0.00 | 0.00 | 0.00 | 93 | 1009.7 | |
| 20260505090056 | 51 | 0.0 | 0.0 | 0.00 | 0.00 | 0.00 | 93 | 1009.7 | |
| 20260505085558 | 51 | 0.0 | 0.0 | 0.00 | 0.00 | 0.00 | 92 | 1009.7 | |
| 20260505085058 | 51 | 0.0 | 0.0 | 0.00 | 0.00 | 0.00 | 92 | 1009.6 | |
| 20260505084558 | 51 | 0.0 | 0.0 | 0.00 | 0.00 | 0.00 | 92 | 1009.6 | |
| 20260505084057 | 51 | 0.0 | 0.0 | 0.00 | 0.00 | 0.00 | 92 | 1009.6 | |
| 20260505083557 | 51 | 0.0 | 0.0 | 0.00 | 0.00 | 0.00 | 92 | 1009.8 | |
| 20260505083058 | 51 | 0.0 | 0.0 | 0.00 | 0.00 | 0.00 | 92 | 1009.8 | |
| 20260505082559 | 51 | 0.0 | 0.0 | 0.00 | 0.00 | 0.00 | 92 | 1009.9 | |
| 20260505082057 | 51 | 0.0 | 0.0 | 0.00 | 0.00 | 0.00 | 92 | 1009.9 | |
| 20260505081613 | 51 | 0.0 | 0.0 | 0.00 | 0.00 | 0.00 | 92 | 1009.8 | |
| 20260505081059 | 51 | 0.0 | 0.0 | 0.00 | 0.00 | 0.00 | 92 | 1009.8 | |
| 20260505080556 | 51 | 0.0 | 0.0 | 0.00 | 0.00 | 0.00 | 92 | 1009.9 | |
| 20260505080104 | 51 | 0.0 | 0.0 | 0.00 | 0.00 | 0.00 | 91 | 1009.9 | |
| 20260505075556 | 51 | 0.0 | 0.0 | 0.00 | 0.00 | 0.00 | 91 | 1009.8 | |
| 20260505075053 | 51 | 0.0 | 0.0 | 0.00 | 0.00 | 0.00 | 91 | 1009.7 | |
| 20260505074555 | 51 | 0.0 | 0.0 | 0.00 | 0.00 | 0.00 | 91 | 1009.7 | |
| 20260505074053 | 51 | 0.0 | 0.0 | 0.00 | 0.00 | 0.00 | 90 | 1009.7 | |
| 20260505073556 | 51 | 0.0 | 0.0 | 0.00 | 0.00 | 0.00 | 90 | 1009.8 | |
| 20260505073055 | 51 | 0.0 | 0.0 | 0.00 | 0.00 | 0.00 | 89 | 1009.7 | |
| 20260505072555 | 51 | 0.0 | 0.0 | 0.00 | 0.00 | 0.00 | 89 | 1009.7 | |
| 20260505072055 | 52 | 0.0 | 0.0 | 0.00 | 0.00 | 0.00 | 89 | 1009.7 | |
| 20260505071600 | 52 | 0.0 | 0.0 | 0.00 | 0.00 | 0.00 | 89 | 1009.6 | |
| 20260505071054 | 52 | 0.0 | 0.0 | 0.00 | 0.00 | 0.00 | 89 | 1009.8 | |
| 20260505070556 | 52 | 0.0 | 0.0 | 0.00 | 0.00 | 0.00 | 88 | 1009.9 | |
| 20260505070105 | 52 | 0.0 | 0.0 | 0.00 | 0.00 | 0.00 | 88 | 1009.8 | |
| 20260505065553 | 52 | 0.0 | 0.0 | 0.00 | 0.00 | 0.00 | 88 | 1010.0 | |
| 20260505065053 | 53 | 0.0 | 0.0 | 0.00 | 0.00 | 0.00 | 87 | 1010.0 | |
| 20260505064559 | 53 | 0.0 | 0.0 | 0.00 | 0.00 | 0.00 | 88 | 1009.9 | |
| 20260505064056 | 53 | 0.0 | 0.0 | 0.00 | 0.00 | 0.00 | 88 | 1009.9 | |
| 20260505063553 | 53 | 0.0 | 0.0 | 0.00 | 0.00 | 0.00 | 87 | 1009.8 | |
| 20260505063057 | 53 | 0.0 | 0.0 | 0.00 | 0.00 | 0.00 | 87 | 1010.0 | |
| 20260505062553 | 53 | 0.0 | 0.0 | 0.00 | 0.00 | 0.00 | 87 | 1009.9 | |
| 20260505062054 | 53 | 0.0 | 0.0 | 0.00 | 0.00 | 0.00 | 87 | 1010.1 | |
| 20260505061600 | 53 | 0.0 | 0.0 | 0.00 | 0.00 | 0.00 | 87 | 1010.0 | |
| 20260505061055 | 53 | 0.0 | 0.0 | 0.00 | 0.00 | 0.00 | 86 | 1010.1 | |
| 20260505060553 | 53 | 0.0 | 0.0 | 0.00 | 0.00 | 0.00 | 86 | 1010.1 | |
| 20260505055553 | 53 | 0.0 | 0.0 | 0.00 | 0.00 | 0.00 | 86 | 1010.1 | |
| 20260505055053 | 53 | 0.0 | 0.0 | 0.00 | 0.00 | 0.00 | 86 | 1010.2 | |
| 20260505054559 | 52 | 0.0 | 0.0 | 0.00 | 0.00 | 0.00 | 86 | 1010.3 | |
| 20260505054055 | 52 | 0.0 | 0.0 | 0.00 | 0.00 | 0.00 | 86 | 1010.4 | |
| 20260505053553 | 52 | 0.0 | 0.0 | 0.00 | 0.00 | 0.00 | 85 | 1010.3 | |
| 20260505053106 | 52 | 0.0 | 0.0 | 0.00 | 0.00 | 0.00 | 85 | 1010.2 | |
| 20260505052552 | 52 | 0.0 | 0.0 | 0.00 | 0.00 | 0.00 | 85 | 1010.3 | |
| 20260505052056 | 52 | 0.0 | 0.0 | 0.00 | 0.00 | 0.00 | 85 | 1010.3 | |
| 20260505051557 | 52 | 0.0 | 0.0 | 0.00 | 0.00 | 0.00 | 85 | 1010.3 | |
| 20260505051056 | 52 | 0.0 | 0.0 | 0.00 | 0.00 | 0.00 | 85 | 1010.3 | |
| 20260505050556 | 52 | 0.0 | 0.0 | 0.00 | 0.00 | 0.00 | 84 | 1010.3 | |
| 20260505041559 | 54 | 0.0 | 0.0 | 0.00 | 0.00 | 0.00 | 79 | 1010.6 | |
| 20260505041058 | 54 | 0.0 | 0.0 | 0.00 | 0.00 | 0.00 | 78 | 1010.7 | |
| 20260505040602 | 55 | 0.0 | 0.0 | 0.00 | 0.00 | 0.00 | 77 | 1010.8 | |
| 20260505040105 | 55 | 0.0 | 0.0 | 0.00 | 0.00 | 0.00 | 77 | 1010.7 | |
| 20260505035557 | 55 | 0.0 | 0.0 | 0.00 | 0.00 | 0.00 | 76 | 1010.7 | |
| 20260505035058 | 55 | 0.0 | 0.0 | 0.00 | 0.00 | 0.00 | 75 | 1010.7 | |
| 20260505034555 | 55 | 0.0 | 0.0 | 0.00 | 0.00 | 0.00 | 75 | 1010.8 | |
| 20260505034058 | 56 | 0.0 | 0.0 | 0.00 | 0.00 | 0.00 | 74 | 1010.7 | |
| 20260505033558 | 56 | 0.0 | 0.0 | 0.00 | 0.00 | 0.00 | 74 | 1010.4 | |
| 20260505033106 | 56 | 0.0 | 0.0 | 0.00 | 0.00 | 0.00 | 74 | 1010.5 | |
| 20260505032558 | 56 | 0.0 | 0.0 | 0.00 | 0.00 | 0.00 | 74 | 1010.6 | |
| 20260505032057 | 56 | 0.0 | 0.0 | 0.00 | 0.00 | 0.00 | 74 | 1010.6 | |
| 20260505031558 | 56 | 0.0 | 0.0 | 0.00 | 0.00 | 0.00 | 74 | 1010.6 | |
| 20260505031055 | 56 | 0.0 | 0.0 | 0.00 | 0.00 | 0.00 | 74 | 1010.6 | |
| 20260505030558 | 56 | 0.0 | 0.0 | 0.00 | 0.00 | 0.00 | 74 | 1010.6 | |
| 20260505030105 | 56 | 0.0 | 0.0 | 0.00 | 0.00 | 0.00 | 73 | 1010.8 | |
| 20260505025559 | 56 | 0.0 | 0.0 | 0.00 | 0.00 | 0.00 | 73 | 1010.8 | |
| 20260505025059 | 56 | 0.0 | 0.0 | 0.00 | 0.00 | 0.00 | 73 | 1010.7 | |
| 20260505024558 | 56 | 0.0 | 0.0 | 0.00 | 0.00 | 0.00 | 73 | 1010.7 | |
| 20260505024100 | 56 | 0.0 | 0.0 | 0.00 | 0.00 | 0.00 | 73 | 1010.7 | |
| 20260505023555 | 56 | 0.0 | 0.0 | 0.00 | 0.00 | 0.00 | 73 | 1010.8 | |
| 20260505023103 | 56 | 0.0 | 0.0 | 0.00 | 0.00 | 0.00 | 74 | 1010.8 | |
| 20260505022558 | 56 | 0.0 | 0.0 | 0.00 | 0.00 | 0.00 | 73 | 1010.8 | |
| 20260505022056 | 56 | 0.0 | 0.0 | 0.00 | 0.00 | 0.00 | 74 | 1010.8 | |
| 20260505021603 | 56 | 0.0 | 0.0 | 0.00 | 0.00 | 0.00 | 74 | 1011.0 | |
| 20260505021057 | 56 | 0.0 | 0.0 | 0.00 | 0.00 | 0.00 | 74 | 1011.0 | |
| 20260505020558 | 56 | 0.0 | 0.0 | 0.00 | 0.00 | 0.00 | 73 | 1010.8 | |
| 20260505020105 | 56 | 0.0 | 0.0 | 0.00 | 0.00 | 0.00 | 73 | 1011.0 | |
| 20260505015558 | 56 | 0.0 | 0.0 | 0.00 | 0.00 | 0.00 | 74 | 1010.8 | |
| 20260505015059 | 55 | 0.0 | 0.0 | 0.00 | 0.00 | 0.00 | 74 | 1010.9 | |
| 20260505014558 | 56 | 0.0 | 0.0 | 0.00 | 0.00 | 0.00 | 74 | 1010.9 | |
| 20260505014058 | 56 | 0.0 | 0.0 | 0.00 | 0.00 | 0.00 | 74 | 1010.8 | |
| 20260505013558 | 56 | 0.0 | 0.0 | 0.00 | 0.00 | 0.00 | 73 | 1010.9 | |
| 20260505013055 | 56 | 0.0 | 0.0 | 0.00 | 0.00 | 0.00 | 74 | 1010.8 | |
| 20260505012555 | 56 | 0.0 | 0.0 | 0.00 | 0.00 | 0.00 | 74 | 1010.8 | |
| 20260505012058 | 56 | 0.0 | 0.0 | 0.00 | 0.00 | 0.00 | 74 | 1010.7 | |
| 20260505011559 | 56 | 0.0 | 0.0 | 0.00 | 0.00 | 0.00 | 75 | 1010.6 | |
| 20260505011058 | 56 | 0.0 | 0.0 | 0.00 | 0.00 | 0.00 | 75 | 1010.7 | |
| 20260505010559 | 55 | 0.0 | 0.0 | 0.00 | 0.00 | 0.00 | 76 | 1010.6 | |
| 20260505010104 | 55 | 0.0 | 0.0 | 0.00 | 0.00 | 0.00 | 76 | 1010.5 | |
| 20260505005556 | 55 | 0.0 | 0.0 | 0.00 | 0.00 | 0.00 | 76 | 1010.4 | |
| 20260505005056 | 55 | 0.0 | 0.0 | 0.00 | 0.00 | 0.00 | 76 | 1010.2 | |
| 20260505004555 | 56 | 0.0 | 0.0 | 0.00 | 0.00 | 0.00 | 75 | 1010.1 | |
| 20260505004055 | 56 | 0.0 | 0.0 | 0.00 | 0.00 | 0.00 | 74 | 1010.1 | |
| 20260505003601 | 56 | 0.0 | 0.0 | 0.00 | 0.00 | 0.00 | 74 | 1010.0 | |
| 20260505003104 | 56 | 0.0 | 0.0 | 0.00 | 0.00 | 0.00 | 73 | 1010.2 | |
| 20260505002555 | 56 | 0.0 | 0.0 | 0.00 | 0.00 | 0.00 | 73 | 1010.0 | |
| 20260505002056 | 56 | 0.0 | 0.0 | 0.00 | 0.00 | 0.00 | 72 | 1010.0 | |
| 20260505001558 | 56 | 0.0 | 0.0 | 0.00 | 0.00 | 0.00 | 72 | 1009.9 | |
| 20260505001056 | 57 | 0.0 | 0.0 | 0.00 | 0.00 | 0.00 | 71 | 1009.9 | |
| 20260505000558 | 57 | 0.0 | 0.0 | 0.00 | 0.00 | 0.00 | 71 | 1009.8 | |
| 20260505000112 | 57 | 0.0 | 0.0 | 0.00 | 0.00 | 0.00 | 70 | 1009.7 | |
| 20260504235558 | 57 | 0.0 | 0.0 | 0.00 | 0.00 | 0.00 | 70 | 1009.5 | |
| 20260504235055 | 57 | 0.0 | 0.0 | 0.00 | 0.00 | 0.00 | 69 | 1009.3 | |
| 20260504234557 | 57 | 0.0 | 0.0 | 0.00 | 0.00 | 0.00 | 69 | 1009.5 | |
| 20260504234056 | 58 | 4.0 | 7.0 | 0.00 | 0.00 | 0.00 | 68 | 1009.4 | |
| 20260504233558 | 58 | 270 | 4.0 | 15.0 | 0.00 | 0.00 | 0.00 | 67 | 1009.3 |
| 20260504233056 | 58 | 208 | 6.0 | 16.0 | 0.00 | 0.00 | 0.00 | 67 | 1009.3 |
| 20260504232558 | 59 | 231 | 8.0 | 16.0 | 0.00 | 0.00 | 0.00 | 66 | 1009.2 |
| 20260504232058 | 59 | 195 | 6.0 | 13.0 | 0.00 | 0.00 | 0.00 | 66 | 1009.2 |
| 20260504231555 | 59 | 271 | 5.0 | 14.0 | 0.00 | 0.00 | 0.00 | 65 | 1009.2 |
| 20260504231056 | 59 | 236 | 5.0 | 18.0 | 0.00 | 0.00 | 0.00 | 65 | 1009.1 |
| 20260504230555 | 59 | 209 | 7.0 | 18.0 | 0.00 | 0.00 | 0.00 | 64 | 1009.0 |
| 20260504230059 | 60 | 203 | 8.0 | 16.0 | 0.00 | 0.00 | 0.00 | 64 | 1009.0 |
| 20260504225557 | 60 | 236 | 6.0 | 14.0 | 0.00 | 0.00 | 0.00 | 63 | 1009.0 |
| 20260504225100 | 60 | 231 | 7.0 | 15.0 | 0.00 | 0.00 | 0.00 | 63 | 1009.0 |
| 20260504224603 | 61 | 225 | 6.0 | 15.0 | 0.00 | 0.00 | 0.00 | 63 | 1009.0 |
| 20260504224057 | 61 | 238 | 8.0 | 14.0 | 0.00 | 0.00 | 0.00 | 63 | 1009.1 |
| 20260504223555 | 61 | 213 | 3.0 | 18.0 | 0.00 | 0.00 | 0.00 | 63 | 1009.0 |
| 20260504223058 | 61 | 211 | 9.0 | 18.0 | 0.00 | 0.00 | 0.00 | 62 | 1009.0 |
| 20260504222556 | 61 | 205 | 4.0 | 17.0 | 0.00 | 0.00 | 0.00 | 61 | 1009.0 |
| 20260504222055 | 61 | 225 | 4.0 | 17.0 | 0.00 | 0.00 | 0.00 | 61 | 1009.0 |
| 20260504221556 | 62 | 205 | 8.0 | 18.0 | 0.00 | 0.00 | 0.00 | 61 | 1009.0 |
| 20260504221055 | 62 | 242 | 10.0 | 18.0 | 0.00 | 0.00 | 0.00 | 60 | 1009.1 |
| 20260504220556 | 62 | 262 | 7.0 | 18.0 | 0.00 | 0.00 | 0.00 | 60 | 1009.1 |
| 20260504220118 | 62 | 171 | 7.0 | 18.0 | 0.00 | 0.00 | 0.00 | 61 | 1009.1 |
| 20260504215556 | 62 | 213 | 10.0 | 18.0 | 0.00 | 0.00 | 0.00 | 59 | 1009.2 |
| 20260504215059 | 62 | 229 | 10.0 | 17.0 | 0.00 | 0.00 | 0.00 | 59 | 1009.1 |
| 20260504214559 | 63 | 248 | 7.0 | 19.0 | 0.00 | 0.00 | 0.00 | 58 | 1009.2 |
| 20260504214056 | 63 | 307 | 8.0 | 21.0 | 0.00 | 0.00 | 0.00 | 59 | 1009.2 |
| 20260504213555 | 63 | 229 | 10.0 | 22.0 | 0.00 | 0.00 | 0.00 | 57 | 1009.2 |
| 20260504213100 | 63 | 184 | 9.0 | 23.0 | 0.00 | 0.00 | 0.00 | 56 | 1009.1 |
| 20260504212556 | 64 | 211 | 8.0 | 23.0 | 0.00 | 0.00 | 0.00 | 56 | 1009.0 |
| 20260504212056 | 64 | 187 | 8.0 | 20.0 | 0.00 | 0.00 | 0.00 | 55 | 1009.0 |
| 20260504211557 | 64 | 243 | 10.0 | 20.0 | 0.00 | 0.00 | 0.00 | 54 | 1009.1 |
| 20260504211056 | 65 | 186 | 8.0 | 16.0 | 0.00 | 0.00 | 0.00 | 54 | 1008.8 |
| 20260504210557 | 65 | 235 | 8.0 | 16.0 | 0.00 | 0.00 | 0.00 | 54 | 1008.9 |
| 20260504205555 | 65 | 235 | 8.0 | 23.0 | 0.00 | 0.00 | 0.00 | 54 | 1008.9 |
| 20260504205055 | 65 | 263 | 10.0 | 23.0 | 0.00 | 0.00 | 0.00 | 53 | 1008.9 |
| 20260504204559 | 66 | 236 | 10.0 | 23.0 | 0.00 | 0.00 | 0.00 | 51 | 1008.9 |
| 20260504204056 | 66 | 183 | 5.0 | 18.0 | 0.00 | 0.00 | 0.00 | 52 | 1009.0 |
| 20260504203556 | 66 | 235 | 6.0 | 22.0 | 0.00 | 0.00 | 0.00 | 51 | 1009.0 |
| 20260504203059 | 66 | 151 | 9.0 | 22.0 | 0.00 | 0.00 | 0.00 | 51 | 1008.8 |
| 20260504202557 | 66 | 148 | 10.0 | 21.0 | 0.00 | 0.00 | 0.00 | 50 | 1009.0 |
| 20260504202056 | 66 | 235 | 8.0 | 23.0 | 0.00 | 0.00 | 0.00 | 54 | 1009.1 |
| 20260504201557 | 66 | 216 | 10.0 | 23.0 | 0.00 | 0.00 | 0.00 | 51 | 1009.1 |
| 20260504201056 | 67 | 244 | 6.0 | 19.0 | 0.00 | 0.00 | 0.00 | 52 | 1009.0 |
| 20260504200556 | 67 | 210 | 10.0 | 23.0 | 0.00 | 0.00 | 0.00 | 51 | 1009.1 |
| 20260504195557 | 67 | 234 | 9.0 | 23.0 | 0.00 | 0.00 | 0.00 | 50 | 1009.3 |
| 20260504195055 | 67 | 182 | 11.0 | 23.0 | 0.00 | 0.00 | 0.00 | 47 | 1009.2 |
| 20260504194603 | 67 | 146 | 11.0 | 19.0 | 0.00 | 0.00 | 0.00 | 48 | 1009.2 |
| 20260504194059 | 67 | 228 | 12.0 | 21.0 | 0.00 | 0.00 | 0.00 | 48 | 1009.2 |
| 20260504193556 | 67 | 179 | 10.0 | 21.0 | 0.00 | 0.00 | 0.00 | 50 | 1009.4 |
| 20260504193100 | 68 | 151 | 10.0 | 20.0 | 0.00 | 0.00 | 0.00 | 46 | 1009.2 |
| 20260504192555 | 69 | 178 | 8.0 | 19.0 | 0.00 | 0.00 | 0.00 | 47 | 1009.3 |
| 20260504192056 | 69 | 194 | 7.0 | 19.0 | 0.00 | 0.00 | 0.00 | 46 | 1009.3 |
| 20260504191559 | 69 | 215 | 7.0 | 26.0 | 0.00 | 0.00 | 0.00 | 47 | 1009.4 |
| 20260504191056 | 69 | 213 | 8.0 | 26.0 | 0.00 | 0.00 | 0.00 | 47 | 1009.3 |
| 20260504190556 | 69 | 182 | 10.0 | 20.0 | 0.00 | 0.00 | 0.00 | 45 | 1009.4 |
| 20260504190110 | 69 | 156 | 6.0 | 14.0 | 0.00 | 0.00 | 0.00 | 47 | 1009.4 |
| 20260504185555 | 69 | 273 | 6.0 | 15.0 | 0.00 | 0.00 | 0.00 | 44 | 1009.4 |
| 20260504185055 | 69 | 248 | 7.0 | 18.0 | 0.00 | 0.00 | 0.00 | 44 | 1009.4 |
| 20260504184613 | 68 | 196 | 9.0 | 18.0 | 0.00 | 0.00 | 0.00 | 44 | 1009.5 |
| 20260504184056 | 69 | 147 | 7.0 | 17.0 | 0.00 | 0.00 | 0.00 | 46 | 1009.5 |
| 20260504183555 | 69 | 205 | 6.0 | 15.0 | 0.00 | 0.00 | 0.00 | 43 | 1009.6 |
| 20260504183059 | 69 | 212 | 9.0 | 16.0 | 0.00 | 0.00 | 0.00 | 43 | 1009.8 |
| 20260504182557 | 69 | 218 | 8.0 | 16.0 | 0.00 | 0.00 | 0.00 | 44 | 1009.8 |
| 20260504182055 | 69 | 236 | 6.0 | 21.0 | 0.00 | 0.00 | 0.00 | 47 | 1009.9 |
| 20260504181556 | 68 | 184 | 9.0 | 21.0 | 0.00 | 0.00 | 0.00 | 44 | 1010.0 |
| 20260504181055 | 69 | 160 | 8.0 | 21.0 | 0.00 | 0.00 | 0.00 | 43 | 1010.0 |
| 20260504180554 | 69 | 232 | 10.0 | 24.0 | 0.00 | 0.00 | 0.00 | 42 | 1010.0 |
| 20260504180057 | 69 | 265 | 8.0 | 24.0 | 0.00 | 0.00 | 0.00 | 45 | 1010.0 |
| 20260504175556 | 68 | 217 | 12.0 | 25.0 | 0.00 | 0.00 | 0.00 | 38 | 1010.1 |
| 20260504175056 | 69 | 170 | 9.0 | 25.0 | 0.00 | 0.00 | 0.00 | 41 | 1010.1 |
| 20260504174609 | 69 | 229 | 9.0 | 21.0 | 0.00 | 0.00 | 0.00 | 40 | 1010.1 |
| 20260504174057 | 69 | 251 | 6.0 | 23.0 | 0.00 | 0.00 | 0.00 | 42 | 1010.2 |
| 20260504173558 | 68 | 240 | 11.0 | 24.0 | 0.00 | 0.00 | 0.00 | 40 | 1010.2 |
| 20260504173103 | 68 | 235 | 12.0 | 24.0 | 0.00 | 0.00 | 0.00 | 39 | 1010.3 |
| 20260504172557 | 68 | 241 | 8.0 | 23.0 | 0.00 | 0.00 | 0.00 | 38 | 1010.3 |
| 20260504172055 | 68 | 171 | 11.0 | 23.0 | 0.00 | 0.00 | 0.00 | 41 | 1010.4 |
| 20260504171559 | 68 | 271 | 8.0 | 23.0 | 0.00 | 0.00 | 0.00 | 41 | 1010.5 |